Location: Auttagershofen
(48.1940°N, 10.0237°E)
Time: 03:14:19
(UTC+00:00)

BlueWalker 3 - Visible Passes

Search period start: 06 March 2026 00:00
Search period end: 16 March 2026 00:00
Orbit: 451 x 458 km, 53.2° (Epoch: 5 March)

Date Brightness Start Highest point End Pass type
(mag) Time Alt. Az. Time Alt. Az. Time Alt. Az.
6 Mar 4.9 02:37:01 14° ENE 02:37:01 14° ENE 02:37:35 10° ENE visible
6 Mar 2.7 04:10:42 31° NW 04:11:41 38° N 04:15:05 10° ENE visible
7 Mar 2.8 03:35:54 39° N 03:35:54 39° N 03:38:58 10° ENE visible
7 Mar 2.8 05:10:05 10° WNW 05:13:29 39° N 05:16:53 10° E visible
8 Mar 4.0 03:01:06 25° NE 03:01:06 25° NE 03:02:51 10° ENE visible
8 Mar 2.9 04:34:46 15° WNW 04:37:19 37° N 04:40:42 10° ENE visible
9 Mar 5.0 02:26:16 13° ENE 02:26:16 13° ENE 02:26:44 10° ENE visible
9 Mar 2.9 03:59:57 27° NW 04:01:08 36° N 04:04:30 10° ENE visible
10 Mar 3.0 03:25:07 35° N 03:25:07 35° N 03:28:17 10° ENE visible
10 Mar 2.2 04:59:14 10° WNW 05:02:48 60° NNE 05:06:22 10° ESE visible
11 Mar 4.1 02:50:17 23° NE 02:50:17 23° NE 02:52:04 10° ENE visible
11 Mar 2.4 04:23:58 16° NW 04:26:37 52° NNE 04:30:08 10° E visible
12 Mar 5.1 02:15:30 12° ENE 02:15:30 12° ENE 02:15:51 10° ENE visible
12 Mar 2.6 03:49:11 32° NW 03:50:24 46° NNE 03:53:54 10° E visible
13 Mar 2.8 03:14:25 41° NNE 03:14:25 41° NNE 03:17:37 10° E visible
13 Mar 1.8 04:48:12 10° WNW 04:51:46 64° SSW 04:55:19 10° SE visible
14 Mar 4.2 02:39:44 22° ENE 02:39:44 22° ENE 02:41:19 10° E visible
14 Mar 1.6 04:13:25 22° WNW 04:15:36 80° SSW 04:19:11 10° ESE visible
15 Mar 1.7 03:38:48 60° NW 03:39:23 85° NNE 03:42:59 10° ESE visible
